VK6JI-11 Weather Reports


time (UTC)temp
C
wind
direction
speed
KPH
gust
KPH
rain 1hr
cm
rain 24hr
cm
rain mn
cm
humidity
%
barometer
mb
20260510023937 21 63 6.4 17.7 0.00 0.00 0.00 47 1025.0
20260510023737 21 4 8.0 17.7 0.00 0.00 0.00 47 1025.0
20260510023537 21 335 6.4 17.7 0.00 0.00 0.00 47 1025.0
20260510023337 21 72 6.4 17.7 0.00 0.00 0.00 47 1025.0
20260510023136 21 61 6.4 17.7 0.00 0.00 0.00 48 1025.1
20260510022936 21 11 6.4 14.5 0.00 0.00 0.00 48 1025.1
20260510022736 21 1 3.2 14.5 0.00 0.00 0.00 48 1025.1
20260510022536 21 61 6.4 19.3 0.00 0.00 0.00 48 1025.2
20260510022336 21 7 6.4 19.3 0.00 0.00 0.00 48 1025.2
20260510022136 21 42 6.4 19.3 0.00 0.00 0.00 49 1025.3
20260510021937 21 45 6.4 19.3 0.00 0.00 0.00 48 1025.3
20260510021736 21 22 9.7 19.3 0.00 0.00 0.00 48 1025.3
20260510021536 21 63 9.7 19.3 0.00 0.00 0.00 48 1025.3
20260510021336 21 65 6.4 19.3 0.00 0.00 0.00 49 1025.3
20260510021136 21 72 6.4 19.3 0.00 0.00 0.00 48 1025.4
20260510020936 21 70 8.0 19.3 0.00 0.00 0.00 48 1025.4
20260510020736 21 48 6.4 19.3 0.00 0.00 0.00 49 1025.4
20260510020536 21 70 8.0 16.1 0.00 0.00 0.00 49 1025.5
20260510020336 20 32 4.8 16.1 0.00 0.00 0.00 50 1025.5
20260510020135 20 27 4.8 16.1 0.00 0.00 0.00 50 1025.5
20260510015936 20 41 8.0 16.1 0.00 0.00 0.00 49 1025.6
20260510015736 20 49 8.0 16.1 0.00 0.00 0.00 50 1025.6
20260510015535 20 66 6.4 16.1 0.00 0.00 0.00 50 1025.7
20260510015335 20 14 6.4 16.1 0.00 0.00 0.00 51 1025.6
20260510015135 20 51 8.0 16.1 0.00 0.00 0.00 51 1025.7
20260510014935 20 45 6.4 14.5 0.00 0.00 0.00 52 1025.6
20260510014735 20 3 6.4 11.3 0.00 0.00 0.00 52 1025.7
20260510014535 20 52 6.4 14.5 0.00 0.00 0.00 53 1025.8
20260510014336 20 45 4.8 14.5 0.00 0.00 0.00 53 1025.7
20260510014135 19 350 4.8 20.9 0.00 0.00 0.00 53 1025.7
20260510013935 19 37 6.4 20.9 0.00 0.00 0.00 54 1025.8
20260510013736 19 21 6.4 20.9 0.00 0.00 0.00 54 1025.8
20260510013535 19 46 4.8 20.9 0.00 0.00 0.00 54 1025.8
20260510013335 19 24 6.4 20.9 0.00 0.00 0.00 54 1025.8
20260510013136 18 37 6.4 16.1 0.00 0.00 0.00 54 1025.8
20260510012935 18 41 6.4 16.1 0.00 0.00 0.00 55 1025.8
20260510012735 18 326 3.2 14.5 0.00 0.00 0.00 56 1025.8
20260510012535 18 62 4.8 14.5 0.00 0.00 0.00 56 1025.9
20260510012335 18 49 4.8 14.5 0.00 0.00 0.00 57 1025.8
20260510012135 18 3 6.4 14.5 0.00 0.00 0.00 57 1025.8
20260510011935 18 62 4.8 14.5 0.00 0.00 0.00 57 1025.8
20260510011735 17 21 6.4 16.1 0.00 0.00 0.00 58 1025.8
20260510011535 17 34 4.8 16.1 0.00 0.00 0.00 58 1025.8
20260510011335 17 111 4.8 16.1 0.00 0.00 0.00 59 1025.8
20260510011135 17 70 4.8 16.1 0.00 0.00 0.00 59 1025.8
20260510010935 17 22 6.4 16.1 0.00 0.00 0.00 60 1025.9
20260510010735 17 15 4.8 14.5 0.00 0.00 0.00 60 1025.8
20260510010535 17 55 4.8 14.5 0.00 0.00 0.00 60 1025.9
20260510010334 16 18 6.4 14.5 0.00 0.00 0.00 61 1025.9
20260510010135 16 61 3.2 11.3 0.00 0.00 0.00 62 1025.9
20260510005934 16 80 6.4 11.3 0.00 0.00 0.00 62 1025.9
20260510005734 16 351 4.8 11.3 0.00 0.00 0.00 63 1025.9
20260510005534 16 8 6.4 11.3 0.00 0.00 0.00 63 1025.9
20260510005335 16 56 3.2 8.0 0.00 0.00 0.00 63 1025.8
20260510005135 15 61 3.2 16.1 0.00 0.00 0.00 64 1025.8
20260510004934 15 61 3.2 16.1 0.00 0.00 0.00 64 1025.8
20260510004733 15 61 3.2 16.1 0.00 0.00 0.00 64 1025.8
20260510004533 15 42 3.2 16.1 0.00 0.00 0.00 65 1025.7
20260510004333 15 42 4.8 16.1 0.00 0.00 0.00 65 1025.8
20260510004134 15 350 4.8 11.3 0.00 0.00 0.00 66 1025.7
20260510003933 15 75 6.4 11.3 0.00 0.00 0.00 66 1025.7
20260510003732 15 18 4.8 11.3 0.00 0.00 0.00 66 1025.7
20260510003533 14 70 3.2 9.7 0.00 0.00 0.00 67 1025.6
20260510003333 14 73 4.8 9.7 0.00 0.00 0.00 66 1025.5
20260510003134 14 46 3.2 9.7 0.00 0.00 0.00 67 1025.5
20260510002935 14 32 3.2 9.7 0.00 0.00 0.00 67 1025.5
20260510002733 14 37 4.8 9.7 0.00 0.00 0.00 67 1025.4
20260510002533 13 65 3.2 9.7 0.00 0.00 0.00 68 1025.4
20260510002333 13 68 4.8 9.7 0.00 0.00 0.00 68 1025.4
20260510002133 13 59 3.2 9.7 0.00 0.00 0.00 68 1025.3
20260510001931 13 51 4.8 9.7 0.00 0.00 0.00 68 1025.3
20260510001731 13 65 4.8 8.0 0.00 0.00 0.00 68 1025.4
20260510001531 13 53 3.2 8.0 0.00 0.00 0.00 69 1025.3
20260510001331 13 18 3.2 8.0 0.00 0.00 0.00 69 1025.3
20260510001131 13 62 3.2 6.4 0.00 0.00 0.00 70 1025.3
20260510000931 13 56 3.2 6.4 0.00 0.00 0.00 70 1025.3
20260510000731 13 72 3.2 6.4 0.00 0.00 0.00 70 1025.4
20260510000533 13 73 3.2 6.4 0.00 0.00 0.00 70 1025.3
20260510000333 12 72 3.2 6.4 0.00 0.00 0.00 70 1025.3
20260510000131 12 75 3.2 9.7 0.00 0.00 0.00 71 1025.3
20260509235931 12 82 3.2 9.7 0.00 0.00 0.00 71 1025.3
20260509235731 12 87 3.2 9.7 0.00 0.00 0.00 71 1025.3
20260509235532 12 90 3.2 9.7 0.00 0.00 0.00 72 1025.3
20260509235331 12 28 4.8 9.7 0.00 0.00 0.00 72 1025.4
20260509235131 12 51 3.2 6.4 0.00 0.00 0.00 72 1025.5
20260509234931 12 55 3.2 6.4 0.00 0.00 0.00 72 1025.5
20260509234732 12 56 1.6 6.4 0.00 0.00 0.00 72 1025.5
20260509234531 12 56 0.0 6.4 0.00 0.00 0.00 72 1025.6
20260509234331 12 56 3.2 6.4 0.00 0.00 0.00 72 1025.5
20260509234131 12 56 1.6 3.2 0.00 0.00 0.00 71 1025.7
20260509233931 12 56 1.6 3.2 0.00 0.00 0.00 71 1025.6
20260509233732 12 56 1.6 3.2 0.00 0.00 0.00 72 1025.6
20260509233531 12 56 0.0 3.2 0.00 0.00 0.00 71 1025.7
20260509233331 12 56 0.0 3.2 0.00 0.00 0.00 71 1025.6
20260509233130 12 56 0.0 3.2 0.00 0.00 0.00 71 1025.6
20260509232931 12 56 0.0 3.2 0.00 0.00 0.00 71 1025.7
20260509232731 12 58 0.0 3.2 0.00 0.00 0.00 71 1025.6
20260509232531 12 58 0.0 4.8 0.00 0.00 0.00 70 1025.6
20260509232332 12 58 0.0 4.8 0.00 0.00 0.00 70 1025.5
20260509232131 12 59 0.0 4.8 0.00 0.00 0.00 70 1025.6
20260509231931 12 59 0.0 4.8 0.00 0.00 0.00 70 1025.5
20260509231732 12 59 3.2 4.8 0.00 0.00 0.00 70 1025.6
20260509231531 12 63 1.6 4.8 0.00 0.00 0.00 70 1025.5
20260509231331 12 65 1.6 4.8 0.00 0.00 0.00 70 1025.5
20260509231131 12 65 1.6 4.8 0.00 0.00 0.00 70 1025.4
20260509230932 12 65 1.6 4.8 0.00 0.00 0.00 70 1025.3
20260509230731 12 65 1.6 8.0 0.00 0.00 0.00 70 1025.2
20260509230533 12 65 3.2 8.0 0.00 0.00 0.00 70 1025.2
20260509230332 12 96 3.2 8.0 0.00 0.00 0.00 70 1025.2
20260509230131 12 96 3.2 8.0 0.00 0.00 0.00 71 1025.1
20260509225931 12 96 3.2 8.0 0.00 0.00 0.00 71 1025.2
20260509225731 12 104 1.6 6.4 0.00 0.00 0.00 70 1025.2
20260509225530 12 104 3.2 6.4 0.00 0.00 0.00 70 1025.2
20260509225331 12 49 1.6 6.4 0.00 0.00 0.00 70 1025.2
20260509225131 12 32 0.0 6.4 0.00 0.00 0.00 70 1025.2
20260509224931 12 32 1.6 6.4 0.00 0.00 0.00 70 1025.2
20260509224731 12 32 3.2 6.4 0.00 0.00 0.00 70 1025.1
20260509224531 12 22 1.6 3.2 0.00 0.00 0.00 70 1025.2
20260509224332 12 22 0.0 3.2 0.00 0.00 0.00 70 1025.2
20260509224132 12 27 0.0 4.8 0.00 0.00 0.00 70 1025.2
20260509223932 12 27 0.0 4.8 0.00 0.00 0.00 70 1025.3
20260509223731 12 27 0.0 4.8 0.00 0.00 0.00 70 1025.3
20260509223531 12 27 1.6 4.8 0.00 0.00 0.00 70 1025.3
20260509223331 12 25 1.6 4.8 0.00 0.00 0.00 69 1025.2
20260509223131 12 24 0.0 4.8 0.00 0.00 0.00 69 1025.2
20260509222910 12 24 1.6 4.8 0.00 0.00 0.00 69 1025.2
20260509222709 12 22 1.6 4.8 0.00 0.00 0.00 69 1025.3
20260509222509 12 59 0.0 1.6 0.00 0.00 0.00 68 1025.2
20260509222309 12 59 0.0 1.6 0.00 0.00 0.00 68 1025.2
20260509222108 12 59 0.0 4.8 0.00 0.00 0.00 68 1025.2
20260509221907 12 59 0.0 4.8 0.00 0.00 0.00 68 1025.2
20260509221709 12 59 0.0 4.8 0.00 0.00 0.00 68 1025.2
20260509221507 12 59 0.0 4.8 0.00 0.00 0.00 67 1025.1
20260509221306 12 59 3.2 4.8 0.00 0.00 0.00 67 1025.2
20260509221106 12 72 1.6 4.8 0.00 0.00 0.00 67 1025.2
20260509220906 12 68 0.0 3.2 0.00 0.00 0.00 67 1025.2
20260509220704 12 68 1.6 4.8 0.00 0.00 0.00 67 1025.1
20260509220504 12 68 0.0 4.8 0.00 0.00 0.00 67 1025.1
20260509220303 12 68 0.0 4.8 0.00 0.00 0.00 67 1025.0
20260509215902 12 68 3.2 4.8 0.00 0.00 0.00 66 1025.1
20260509215703 12 69 1.6 3.2 0.00 0.00 0.00 66 1025.0
20260509215502 12 70 1.6 6.4 0.00 0.00 0.00 66 1025.0
20260509215306 12 72 1.6 6.4 0.00 0.00 0.00 66 1025.1
20260509215105 12 72 1.6 6.4 0.00 0.00 0.00 66 1024.9
20260509214904 13 72 1.6 6.4 0.00 0.00 0.00 66 1025.0
20260509214703 13 70 3.2 6.4 0.00 0.00 0.00 66 1025.0
20260509214504 12 70 3.2 6.4 0.00 0.00 0.00 66 1024.9
20260509214304 13 86 3.2 6.4 0.00 0.00 0.00 66 1024.8
20260509214105 13 86 3.2 6.4 0.00 0.00 0.00 66 1024.8
20260509213904 13 77 3.2 6.4 0.00 0.00 0.00 66 1024.8
20260509213704 13 80 3.2 6.4 0.00 0.00 0.00 66 1024.9
20260509213504 13 80 3.2 6.4 0.00 0.00 0.00 66 1024.8
20260509213304 13 73 3.2 9.7 0.00 0.00 0.00 66 1024.8
20260509213103 13 73 3.2 9.7 0.00 0.00 0.00 66 1024.7
20260509212905 13 51 3.2 9.7 0.00 0.00 0.00 66 1024.7
20260509212704 13 49 3.2 9.7 0.00 0.00 0.00 66 1024.7
20260509212441 13 49 4.8 9.7 0.00 0.00 0.00 66 1024.7
20260509212241 12 73 3.2 8.0 0.00 0.00 0.00 66 1024.6
20260509212041 12 75 3.2 8.0 0.00 0.00 0.00 66 1024.6
20260509211840 12 73 3.2 8.0 0.00 0.00 0.00 66 1024.6
20260509211639 12 63 4.8 8.0 0.00 0.00 0.00 66 1024.6
20260509211439 12 100 4.8 8.0 0.00 0.00 0.00 66 1024.5
20260509211239 12 68 3.2 6.4 0.00 0.00 0.00 66 1024.6
20260509211038 12 68 4.8 6.4 0.00 0.00 0.00 66 1024.6
20260509210838 12 76 3.2 6.4 0.00 0.00 0.00 66 1024.6
20260509210635 12 75 3.2 6.4 0.00 0.00 0.00 66 1024.6
20260509210434 12 63 3.2 6.4 0.00 0.00 0.00 67 1024.5
20260509210234 12 62 3.2 6.4 0.00 0.00 0.00 66 1024.5
20260509210036 12 72 3.2 6.4 0.00 0.00 0.00 66 1024.5
20260509205833 12 69 3.2 6.4 0.00 0.00 0.00 67 1024.4
20260509205636 12 69 3.2 6.4 0.00 0.00 0.00 66 1024.5
20260509205432 12 75 3.2 4.8 0.00 0.00 0.00 66 1024.6
20260509205233 12 86 3.2 4.8 0.00 0.00 0.00 66 1024.6
20260509205033 12 94 3.2 4.8 0.00 0.00 0.00 66 1024.5
20260509204833 12 90 3.2 4.8 0.00 0.00 0.00 66 1024.5
20260509204637 12 69 1.6 4.8 0.00 0.00 0.00 66 1024.5
20260509204432 12 69 3.2 4.8 0.00 0.00 0.00 66 1024.5
20260509204233 12 72 1.6 4.8 0.00 0.00 0.00 66 1024.5
20260509204032 12 72 1.6 4.8 0.00 0.00 0.00 66 1024.5
20260509203834 12 72 3.2 4.8 0.00 0.00 0.00 66 1024.5
20260509203635 12 70 1.6 4.8 0.00 0.00 0.00 66 1024.4
20260509203433 12 72 3.2 4.8 0.00 0.00 0.00 66 1024.4
20260509203231 12 82 3.2 6.4 0.00 0.00 0.00 66 1024.3
20260509203032 12 82 3.2 6.4 0.00 0.00 0.00 66 1024.3
20260509202830 12 73 3.2 6.4 0.00 0.00 0.00 65 1024.3
20260509202631 12 73 3.2 6.4 0.00 0.00 0.00 65 1024.2
20260509202430 12 73 3.2 6.4 0.00 0.00 0.00 65 1024.2
20260509202231 12 72 3.2 4.8 0.00 0.00 0.00 65 1024.2
20260509202030 12 72 1.6 6.4 0.00 0.00 0.00 65 1024.2
20260509201830 12 72 3.2 6.4 0.00 0.00 0.00 65 1024.2
20260509201631 12 70 3.2 6.4 0.00 0.00 0.00 65 1024.1
20260509201430 12 70 3.2 6.4 0.00 0.00 0.00 65 1024.1
20260509201228 12 76 3.2 6.4 0.00 0.00 0.00 65 1024.0
20260509201028 12 73 3.2 6.4 0.00 0.00 0.00 65 1024.1
20260509200829 12 73 3.2 6.4 0.00 0.00 0.00 65 1024.1
20260509200628 12 75 3.2 6.4 0.00 0.00 0.00 65 1024.1
20260509200428 12 77 3.2 6.4 0.00 0.00 0.00 65 1024.1
20260509200228 12 77 3.2 6.4 0.00 0.00 0.00 65 1024.1
20260509200029 12 83 3.2 6.4 0.00 0.00 0.00 65 1024.0
20260509195828 12 100 3.2 6.4 0.00 0.00 0.00 65 1024.1
20260509195627 12 69 3.2 6.4 0.00 0.00 0.00 65 1024.1
20260509195428 12 68 3.2 6.4 0.00 0.00 0.00 65 1024.1
20260509195227 12 75 3.2 8.0 0.00 0.00 0.00 65 1024.1
20260509195028 12 76 3.2 8.0 0.00 0.00 0.00 65 1024.1
20260509194828 12 93 3.2 8.0 0.00 0.00 0.00 65 1024.1
20260509194627 12 93 3.2 8.0 0.00 0.00 0.00 65 1024.0
20260509194428 12 93 3.2 8.0 0.00 0.00 0.00 65 1024.1
20260509194227 12 66 3.2 6.4 0.00 0.00 0.00 65 1024.0
20260509194027 12 79 3.2 6.4 0.00 0.00 0.00 65 1024.0
20260509193828 12 84 3.2 6.4 0.00 0.00 0.00 65 1024.1
20260509193628 12 68 3.2 6.4 0.00 0.00 0.00 65 1024.0
20260509193428 12 73 1.6 4.8 0.00 0.00 0.00 65 1024.0
20260509193227 12 72 3.2 4.8 0.00 0.00 0.00 65 1024.1
20260509193027 12 72 3.2 4.8 0.00 0.00 0.00 65 1024.1
20260509192827 12 70 1.6 4.8 0.00 0.00 0.00 65 1024.1
20260509192628 12 70 3.2 4.8 0.00 0.00 0.00 65 1024.2
20260509192427 12 70 3.2 4.8 0.00 0.00 0.00 64 1024.2
20260509192227 12 70 0.0 6.4 0.00 0.00 0.00 64 1024.1
20260509192027 12 70 3.2 6.4 0.00 0.00 0.00 64 1024.2
20260509191828 12 69 1.6 6.4 0.00 0.00 0.00 65 1024.1
20260509191627 12 69 3.2 6.4 0.00 0.00 0.00 64 1024.1
20260509191427 12 68 3.2 6.4 0.00 0.00 0.00 65 1024.1
20260509191227 12 69 3.2 6.4 0.00 0.00 0.00 65 1024.1
20260509191026 12 69 3.2 6.4 0.00 0.00 0.00 65 1024.0
20260509190827 12 69 3.2 6.4 0.00 0.00 0.00 65 1024.0
20260509190626 12 69 3.2 9.7 0.00 0.00 0.00 65 1024.0
20260509190427 12 49 3.2 9.7 0.00 0.00 0.00 65 1024.0
20260509190227 12 49 3.2 9.7 0.00 0.00 0.00 65 1024.0
20260509190026 12 49 3.2 9.7 0.00 0.00 0.00 65 1024.0
20260509185804 12 61 3.2 6.4 0.00 0.00 0.00 65 1024.1
20260509185604 12 66 3.2 6.4 0.00 0.00 0.00 65 1024.1
20260509185405 12 66 3.2 6.4 0.00 0.00 0.00 65 1024.0
20260509185159 12 66 3.2 6.4 0.00 0.00 0.00 65 1024.1
20260509184959 12 72 3.2 4.8 0.00 0.00 0.00 64 1024.2
20260509184759 12 72 3.2 4.8 0.00 0.00 0.00 64 1024.1
20260509184558 12 72 1.6 3.2 0.00 0.00 0.00 64 1024.1
20260509184359 12 66 3.2 3.2 0.00 0.00 0.00 64 1024.1
20260509184156 12 66 3.2 3.2 0.00 0.00 0.00 64 1024.2
20260509183953 12 66 3.2 3.2 0.00 0.00 0.00 64 1024.1
20260509183753 12 66 3.2 3.2 0.00 0.00 0.00 64 1024.2
20260509183554 12 65 3.2 3.2 0.00 0.00 0.00 64 1024.2
20260509183352 12 66 1.6 4.8 0.00 0.00 0.00 64 1024.2
20260509183152 12 66 3.2 4.8 0.00 0.00 0.00 64 1024.1
20260509182952 12 66 3.2 4.8 0.00 0.00 0.00 64 1024.1
20260509182736 12 66 3.2 4.8 0.00 0.00 0.00 64 1024.2
20260509182537 12 66 3.2 4.8 0.00 0.00 0.00 64 1024.1
20260509182336 12 66 1.6 4.8 0.00 0.00 0.00 64 1024.1
20260509182136 12 66 3.2 4.8 0.00 0.00 0.00 64 1024.1
20260509181935 12 66 3.2 4.8 0.00 0.00 0.00 64 1024.0
20260509181735 12 66 3.2 4.8 0.00 0.00 0.00 64 1024.0
20260509181533 12 66 3.2 4.8 0.00 0.00 0.00 64 1024.0
20260509181332 12 66 3.2 8.0 0.00 0.00 0.00 64 1024.1
20260509181133 12 66 3.2 8.0 0.00 0.00 0.00 64 1024.0
20260509180933 12 66 3.2 8.0 0.00 0.00 0.00 64 1024.0
20260509180733 12 66 3.2 8.0 0.00 0.00 0.00 64 1024.1
20260509180536 12 66 3.2 8.0 0.00 0.00 0.00 64 1024.0
20260509180332 12 73 3.2 4.8 0.00 0.00 0.00 64 1024.0
20260509180131 12 76 3.2 4.8 0.00 0.00 0.00 64 1024.0
20260509175931 12 76 3.2 4.8 0.00 0.00 0.00 64 1024.1
20260509175732 12 76 3.2 4.8 0.00 0.00 0.00 64 1024.1
20260509175531 12 76 3.2 4.8 0.00 0.00 0.00 64 1024.1
20260509175332 12 76 3.2 4.8 0.00 0.00 0.00 64 1024.1
20260509175131 12 76 3.2 4.8 0.00 0.00 0.00 64 1024.2
20260509174931 12 76 1.6 4.8 0.00 0.00 0.00 64 1024.1
20260509174731 12 76 3.2 4.8 0.00 0.00 0.00 64 1024.2
20260509174531 12 77 1.6 3.2 0.00 0.00 0.00 64 1024.2
20260509174331 12 77 1.6 3.2 0.00 0.00 0.00 64 1024.2
20260509174131 12 77 1.6 3.2 0.00 0.00 0.00 64 1024.2
20260509173931 12 77 1.6 3.2 0.00 0.00 0.00 64 1024.2
20260509173731 12 77 1.6 3.2 0.00 0.00 0.00 64 1024.2
20260509173531 12 77 1.6 3.2 0.00 0.00 0.00 64 1024.2
20260509173331 12 77 1.6 3.2 0.00 0.00 0.00 64 1024.2
20260509173131 12 77 1.6 3.2 0.00 0.00 0.00 63 1024.3
20260509172932 12 77 0.0 1.6 0.00 0.00 0.00 63 1024.3
20260509172731 12 77 0.0 0.0 0.00 0.00 0.00 63 1024.3
20260509172531 12 77 0.0 0.0 0.00 0.00 0.00 63 1024.3
20260509172331 12 77 0.0 0.0 0.00 0.00 0.00 63 1024.2
20260509172132 12 77 0.0 0.0 0.00 0.00 0.00 63 1024.3
20260509171931 12 77 0.0 0.0 0.00 0.00 0.00 63 1024.3
20260509171731 12 77 0.0 1.6 0.00 0.00 0.00 63 1024.2
20260509171531 12 77 0.0 3.2 0.00 0.00 0.00 62 1024.2
20260509171331 12 77 0.0 3.2 0.00 0.00 0.00 62 1024.3
20260509171132 12 77 0.0 3.2 0.00 0.00 0.00 62 1024.2
20260509170931 12 77 0.0 3.2 0.00 0.00 0.00 62 1024.2
20260509170731 12 77 1.6 3.2 0.00 0.00 0.00 62 1024.2
20260509170532 12 77 1.6 3.2 0.00 0.00 0.00 62 1024.2
20260509170327 12 77 1.6 3.2 0.00 0.00 0.00 62 1024.2
20260509170128 12 77 1.6 3.2 0.00 0.00 0.00 61 1024.3
20260509165926 12 77 1.6 3.2 0.00 0.00 0.00 61 1024.3
20260509165727 12 77 1.6 3.2 0.00 0.00 0.00 61 1024.3
20260509165527 13 77 1.6 3.2 0.00 0.00 0.00 61 1024.3
20260509165328 13 77 0.0 3.2 0.00 0.00 0.00 61 1024.3
20260509165127 13 77 1.6 3.2 0.00 0.00 0.00 61 1024.3
20260509164927 13 77 1.6 3.2 0.00 0.00 0.00 61 1024.3
20260509164727 13 77 1.6 3.2 0.00 0.00 0.00 61 1024.3
20260509164527 13 77 1.6 3.2 0.00 0.00 0.00 61 1024.4
20260509164326 13 77 1.6 3.2 0.00 0.00 0.00 60 1024.3
20260509164126 13 77 1.6 3.2 0.00 0.00 0.00 60 1024.3
20260509163927 13 77 1.6 6.4 0.00 0.00 0.00 60 1024.4
20260509163726 13 77 1.6 6.4 0.00 0.00 0.00 60 1024.4
20260509163528 13 77 1.6 6.4 0.00 0.00 0.00 60 1024.4
20260509163326 13 69 1.6 6.4 0.00 0.00 0.00 60 1024.4
20260509163126 13 69 1.6 6.4 0.00 0.00 0.00 60 1024.4
20260509162926 13 70 1.6 3.2 0.00 0.00 0.00 60 1024.4
20260509162726 13 70 1.6 3.2 0.00 0.00 0.00 60 1024.4
20260509162528 13 70 1.6 3.2 0.00 0.00 0.00 60 1024.4
20260509162325 13 70 1.6 6.4 0.00 0.00 0.00 60 1024.4
20260509162125 13 70 0.0 6.4 0.00 0.00 0.00 59 1024.3
20260509161926 13 70 0.0 6.4 0.00 0.00 0.00 59 1024.4
20260509161726 13 70 0.0 6.4 0.00 0.00 0.00 59 1024.4
20260509161527 13 70 1.6 6.4 0.00 0.00 0.00 59 1024.4
20260509161326 13 72 1.6 4.8 0.00 0.00 0.00 60 1024.5
20260509161125 13 72 1.6 4.8 0.00 0.00 0.00 60 1024.4
20260509160926 13 72 1.6 4.8 0.00 0.00 0.00 60 1024.5
20260509160725 -17 0.0 0.0 0.00 0.00 0.00 1024.4
20260509160527 -17 0.0 0.0 0.00 0.00 0.00 1024.5
20260509155823 13 72 0.0 0.0 0.00 0.00 0.00 60 1024.5
20260509155623 13 72 0.0 0.0 0.00 0.00 0.00 60 1024.5
20260509155422 13 72 0.0 0.0 0.00 0.00 0.00 60 1024.5
20260509155223 13 72 0.0 0.0 0.00 0.00 0.00 59 1024.5
20260509155021 13 72 0.0 0.0 0.00 0.00 0.00 59 1024.5
20260509154821 13 72 0.0 0.0 0.00 0.00 0.00 59 1024.5
20260509154620 13 72 0.0 0.0 0.00 0.00 0.00 59 1024.6
20260509154408 13 72 0.0 0.0 0.00 0.00 0.00 59 1024.6
20260509154208 13 72 0.0 0.0 0.00 0.00 0.00 59 1024.6
20260509154008 13 72 0.0 0.0 0.00 0.00 0.00 59 1024.6
20260509153807 13 72 0.0 0.0 0.00 0.00 0.00 59 1024.6
20260509153607 13 72 0.0 0.0 0.00 0.00 0.00 59 1024.7
20260509153406 13 72 0.0 0.0 0.00 0.00 0.00 59 1024.7
20260509153206 13 72 0.0 0.0 0.00 0.00 0.00 59 1024.7
20260509153145 13 72 0.0 0.0 0.00 0.00 0.00 59 1024.7
20260509152803 13 72 0.0 0.0 0.00 0.00 0.00 59 1024.6
20260509152602 13 72 0.0 0.0 0.00 0.00 0.00 59 1024.6
20260509152402 13 72 0.0 0.0 0.00 0.00 0.00 59 1024.6
20260509152202 13 72 0.0 0.0 0.00 0.00 0.00 59 1024.7
20260509152002 13 72 0.0 0.0 0.00 0.00 0.00 59 1024.7
20260509151802 13 72 0.0 0.0 0.00 0.00 0.00 59 1024.7
20260509151602 13 72 0.0 0.0 0.00 0.00 0.00 59 1024.8
20260509151402 13 72 0.0 0.0 0.00 0.00 0.00 59 1024.8
20260509151201 13 72 0.0 0.0 0.00 0.00 0.00 59 1024.7
20260509151000 13 72 0.0 0.0 0.00 0.00 0.00 59 1024.8
20260509150755 13 72 0.0 0.0 0.00 0.00 0.00 59 1024.8
20260509150557 13 72 0.0 0.0 0.00 0.00 0.00 59 1024.8
20260509150355 13 72 0.0 1.6 0.00 0.00 0.00 59 1024.8
20260509150156 13 72 0.0 1.6 0.00 0.00 0.00 59 1024.8
20260509145955 13 72 0.0 1.6 0.00 0.00 0.00 59 1024.9
20260509145755 13 72 0.0 1.6 0.00 0.00 0.00 59 1024.9
20260509145555 13 72 0.0 1.6 0.00 0.00 0.00 59 1024.9
20260509145354 13 72 0.0 1.6 0.00 0.00 0.00 59 1024.9
20260509145156 13 72 0.0 0.0 0.00 0.00 0.00 58 1024.9
20260509144955 13 72 0.0 0.0 0.00 0.00 0.00 58 1024.9
20260509144744 13 72 0.0 0.0 0.00 0.00 0.00 58 1024.9
20260509144541 13 72 0.0 0.0 0.00 0.00 0.00 58 1025.0
20260509144341 13 72 0.0 0.0 0.00 0.00 0.00 58 1024.9
20260509144140 13 72 0.0 0.0 0.00 0.00 0.00 58 1025.0
20260509143940 13 72 0.0 0.0 0.00 0.00 0.00 58 1025.0
20260509143734 13 72 0.0 0.0 0.00 0.00 0.00 58 1025.0
20260509143534 13 72 0.0 0.0 0.00 0.00 0.00 57 1025.0
20260509143334 13 72 0.0 0.0 0.00 0.00 0.00 57 1025.1
20260509143134 13 72 0.0 0.0 0.00 0.00 0.00 57 1025.1
20260509142935 13 72 0.0 0.0 0.00 0.00 0.00 57 1025.1
20260509142734 13 72 0.0 0.0 0.00 0.00 0.00 56 1025.1
20260509142531 13 72 0.0 0.0 0.00 0.00 0.00 56 1025.1
20260509142331 14 72 0.0 0.0 0.00 0.00 0.00 56 1025.1
20260509142130 14 72 0.0 0.0 0.00 0.00 0.00 56 1025.2
20260509141929 14 72 0.0 0.0 0.00 0.00 0.00 56 1025.1
20260509141729 14 72 0.0 0.0 0.00 0.00 0.00 56 1025.1
20260509141529 14 72 0.0 0.0 0.00 0.00 0.00 56 1025.0
20260509141329 14 72 0.0 1.6 0.00 0.00 0.00 56 1025.0
20260509141128 14 72 0.0 1.6 0.00 0.00 0.00 55 1025.0
20260509140927 14 72 0.0 1.6 0.00 0.00 0.00 55 1025.0
20260509140726 14 72 0.0 1.6 0.00 0.00 0.00 55 1025.0
20260509140527 14 72 0.0 1.6 0.00 0.00 0.00 55 1025.0
20260509140326 14 72 0.0 1.6 0.00 0.00 0.00 54 1024.9
20260509140127 15 72 0.0 0.0 0.00 0.00 0.00 54 1024.9
20260509135922 15 72 0.0 0.0 0.00 0.00 0.00 54 1025.0
20260509135722 15 72 0.0 1.6 0.00 0.00 0.00 54 1024.9
20260509135521 15 72 0.0 1.6 0.00 0.00 0.00 54 1024.9
20260509135321 15 72 0.0 3.2 0.00 0.00 0.00 54 1024.9
20260509135120 15 72 0.0 3.2 0.00 0.00 0.00 54 1024.8
20260509134920 15 72 0.0 3.2 0.00 0.00 0.00 54 1024.8
20260509134719 15 72 1.6 3.2 0.00 0.00 0.00 54 1024.9
20260509134519 15 72 1.6 3.2 0.00 0.00 0.00 54 1024.9
20260509134318 15 72 0.0 1.6 0.00 0.00 0.00 54 1024.9
20260509134118 15 72 0.0 3.2 0.00 0.00 0.00 53 1024.8
20260509133917 15 72 1.6 3.2 0.00 0.00 0.00 53 1024.9
20260509133717 15 72 1.6 3.2 0.00 0.00 0.00 53 1024.9
20260509133517 15 72 1.6 3.2 0.00 0.00 0.00 53 1024.9
20260509133316 15 72 1.6 3.2 0.00 0.00 0.00 53 1024.8
20260509133117 15 72 1.6 3.2 0.00 0.00 0.00 53 1024.9
20260509132915 15 72 1.6 3.2 0.00 0.00 0.00 53 1024.8
20260509132715 15 72 3.2 3.2 0.00 0.00 0.00 53 1024.8
20260509132511 15 72 3.2 3.2 0.00 0.00 0.00 53 1024.8
20260509132309 15 70 1.6 4.8 0.00 0.00 0.00 53 1024.9
20260509132108 15 70 1.6 4.8 0.00 0.00 0.00 53 1024.9
20260509131907 15 72 1.6 4.8 0.00 0.00 0.00 54 1024.9
20260509131704 15 72 1.6 4.8 0.00 0.00 0.00 53 1024.9
20260509131505 15 72 3.2 4.8 0.00 0.00 0.00 53 1024.8
20260509131304 15 75 1.6 3.2 0.00 0.00 0.00 53 1024.9
20260509131104 15 73 3.2 3.2 0.00 0.00 0.00 53 1024.8
20260509130904 15 69 1.6 3.2 0.00 0.00 0.00 53 1024.8
20260509130704 15 69 1.6 3.2 0.00 0.00 0.00 54 1024.7
20260509130504 15 68 1.6 3.2 0.00 0.00 0.00 53 1024.7
20260509130303 15 68 1.6 3.2 0.00 0.00 0.00 53 1024.8
20260509125902 15 68 1.6 3.2 0.00 0.00 0.00 53 1024.8
20260509125702 15 68 1.6 3.2 0.00 0.00 0.00 52 1024.8
20260509125503 15 68 0.0 3.2 0.00 0.00 0.00 52 1024.7
20260509125301 15 70 0.0 3.2 0.00 0.00 0.00 52 1024.7
20260509125102 15 70 0.0 3.2 0.00 0.00 0.00 52 1024.6
20260509124902 15 70 0.0 3.2 0.00 0.00 0.00 52 1024.7
20260509124702 15 70 1.6 3.2 0.00 0.00 0.00 52 1024.6
20260509124504 15 70 1.6 3.2 0.00 0.00 0.00 52 1024.6
20260509124303 15 70 0.0 3.2 0.00 0.00 0.00 52 1024.6
20260509124102 15 70 1.6 3.2 0.00 0.00 0.00 52 1024.6
20260509123902 15 70 1.6 3.2 0.00 0.00 0.00 52 1024.6
20260509123703 15 70 0.0 3.2 0.00 0.00 0.00 52 1024.6
20260509123503 15 70 1.6 3.2 0.00 0.00 0.00 51 1024.5
20260509123302 15 70 1.6 3.2 0.00 0.00 0.00 51 1024.5
20260509123102 15 70 1.6 3.2 0.00 0.00 0.00 51 1024.4
20260509122902 15 70 1.6 3.2 0.00 0.00 0.00 51 1024.5
20260509122702 15 70 0.0 3.2 0.00 0.00 0.00 51 1024.5
20260509122502 15 69 0.0 0.0 0.00 0.00 0.00 51 1024.5
20260509122305 15 69 0.0 0.0 0.00 0.00 0.00 51 1024.5
20260509122102 15 69 0.0 0.0 0.00 0.00 0.00 51 1024.6
20260509121902 16 69 0.0 0.0 0.00 0.00 0.00 51 1024.5
20260509121703 16 69 0.0 0.0 0.00 0.00 0.00 51 1024.5
20260509121503 16 69 0.0 0.0 0.00 0.00 0.00 51 1024.4
20260509121302 16 69 0.0 0.0 0.00 0.00 0.00 51 1024.5
20260509121102 16 69 0.0 0.0 0.00 0.00 0.00 50 1024.5
20260509120901 16 69 0.0 0.0 0.00 0.00 0.00 50 1024.4
20260509120700 16 69 0.0 1.6 0.00 0.00 0.00 50 1024.5
20260509120500 16 69 0.0 3.2 0.00 0.00 0.00 50 1024.4
20260509120257 16 69 0.0 3.2 0.00 0.00 0.00 50 1024.4
20260509120055 16 69 0.0 3.2 0.00 0.00 0.00 50 1024.4
20260509115850 16 69 0.0 3.2 0.00 0.00 0.00 50 1024.4
20260509115650 16 69 1.6 3.2 0.00 0.00 0.00 50 1024.4
20260509115450 16 69 0.0 3.2 0.00 0.00 0.00 49 1024.3
20260509115251 16 69 0.0 3.2 0.00 0.00 0.00 49 1024.3
20260509115050 16 69 0.0 3.2 0.00 0.00 0.00 49 1024.4
20260509114850 16 69 1.6 3.2 0.00 0.00 0.00 49 1024.3
20260509114648 16 66 1.6 3.2 0.00 0.00 0.00 49 1024.3
20260509114447 16 66 1.6 3.2 0.00 0.00 0.00 49 1024.3
20260509114247 16 66 1.6 3.2 0.00 0.00 0.00 49 1024.3
20260509114046 16 65 1.6 3.2 0.00 0.00 0.00 49 1024.3
20260509113845 16 65 1.6 3.2 0.00 0.00 0.00 49 1024.3
20260509113645 16 65 0.0 3.2 0.00 0.00 0.00 49 1024.2
20260509113444 16 65 1.6 3.2 0.00 0.00 0.00 48 1024.2
20260509113244 17 65 1.6 3.2 0.00 0.00 0.00 48 1024.3
20260509113044 17 65 0.0 3.2 0.00 0.00 0.00 48 1024.2
20260509112843 17 65 0.0 3.2 0.00 0.00 0.00 48 1024.2
20260509112643 17 65 1.6 3.2 0.00 0.00 0.00 48 1024.3
20260509112437 17 63 1.6 6.4 0.00 0.00 0.00 48 1024.2
20260509112236 17 63 1.6 6.4 0.00 0.00 0.00 48 1024.2
20260509112036 17 65 1.6 6.4 0.00 0.00 0.00 48 1024.2
20260509111835 17 63 1.6 6.4 0.00 0.00 0.00 48 1024.2
20260509111634 17 63 1.6 6.4 0.00 0.00 0.00 48 1024.2
20260509111435 17 65 1.6 3.2 0.00 0.00 0.00 48 1024.2
20260509111235 17 65 1.6 3.2 0.00 0.00 0.00 48 1024.2
20260509111033 17 65 1.6 3.2 0.00 0.00 0.00 48 1024.3
20260509110833 17 65 0.0 3.2 0.00 0.00 0.00 48 1024.2
20260509110633 17 65 1.6 3.2 0.00 0.00 0.00 48 1024.2
20260509110433 17 63 0.0 3.2 0.00 0.00 0.00 48 1024.2
20260509110233 17 63 1.6 3.2 0.00 0.00 0.00 48 1024.1
20260509110034 17 63 1.6 3.2 0.00 0.00 0.00 48 1024.2
20260509105832 17 63 0.0 1.6 0.00 0.00 0.00 48 1024.1
20260509105633 17 63 0.0 1.6 0.00 0.00 0.00 48 1024.1
20260509105434 17 63 0.0 1.6 0.00 0.00 0.00 47 1024.1
20260509105233 17 63 0.0 1.6 0.00 0.00 0.00 47 1024.1
20260509105032 17 63 0.0 3.2 0.00 0.00 0.00 47 1024.2
20260509104832 17 63 0.0 3.2 0.00 0.00 0.00 47 1024.2
20260509104632 17 63 0.0 3.2 0.00 0.00 0.00 47 1024.1
20260509104432 17 63 0.0 3.2 0.00 0.00 0.00 47 1024.2
20260509104232 17 63 0.0 3.2 0.00 0.00 0.00 47 1024.1
20260509104032 17 63 0.0 1.6 0.00 0.00 0.00 46 1024.1
20260509103833 17 63 0.0 1.6 0.00 0.00 0.00 46 1024.2
20260509103614 17 63 0.0 1.6 0.00 0.00 0.00 46 1024.0
20260509103413 18 63 0.0 1.6 0.00 0.00 0.00 46 1024.1
20260509103214 18 63 0.0 1.6 0.00 0.00 0.00 46 1024.2
20260509103013 18 63 0.0 1.6 0.00 0.00 0.00 45 1024.1
20260509102813 18 63 0.0 0.0 0.00 0.00 0.00 45 1024.1
20260509102612 18 63 0.0 0.0 0.00 0.00 0.00 45 1024.2
20260509102412 18 63 0.0 0.0 0.00 0.00 0.00 45 1024.1
20260509102211 18 63 0.0 0.0 0.00 0.00 0.00 45 1024.1
20260509102011 18 63 0.0 0.0 0.00 0.00 0.00 45 1024.1
20260509101811 18 63 0.0 1.6 0.00 0.00 0.00 44 1024.1
20260509101607 18 63 0.0 1.6 0.00 0.00 0.00 44 1024.1
20260509101407 18 63 0.0 3.2 0.00 0.00 0.00 44 1024.1
20260509101206 18 63 0.0 3.2 0.00 0.00 0.00 44 1024.0
20260509101006 18 63 0.0 3.2 0.00 0.00 0.00 44 1024.1
20260509100807 18 63 0.0 3.2 0.00 0.00 0.00 44 1024.0
20260509100605 18 63 0.0 3.2 0.00 0.00 0.00 44 1024.0
20260509100404 19 62 0.0 1.6 0.00 0.00 0.00 44 1024.0
20260509100204 19 62 0.0 1.6 0.00 0.00 0.00 43 1023.9
20260509100005 19 62 0.0 1.6 0.00 0.00 0.00 43 1023.9
20260509095805 19 62 0.0 1.6 0.00 0.00 0.00 43 1023.9
20260509095604 19 62 0.0 1.6 0.00 0.00 0.00 43 1024.0
20260509095404 20 62 0.0 0.0 0.00 0.00 0.00 43 1023.9
20260509095203 20 63 0.0 0.0 0.00 0.00 0.00 43 1023.9
20260509095004 20 63 0.0 0.0 0.00 0.00 0.00 43 1023.9
20260509094804 20 63 0.0 0.0 0.00 0.00 0.00 42 1023.9
20260509094604 20 63 0.0 0.0 0.00 0.00 0.00 42 1024.0
20260509094405 20 63 0.0 0.0 0.00 0.00 0.00 42 1023.9
20260509094204 20 63 0.0 0.0 0.00 0.00 0.00 42 1024.0
20260509094005 20 63 0.0 0.0 0.00 0.00 0.00 42 1023.9
20260509093804 20 63 0.0 0.0 0.00 0.00 0.00 41 1023.9
20260509093604 20 63 0.0 1.6 0.00 0.00 0.00 41 1023.8
20260509093404 20 63 0.0 1.6 0.00 0.00 0.00 41 1023.9
20260509093204 20 63 0.0 1.6 0.00 0.00 0.00 40 1023.9
20260509093005 21 63 0.0 1.6 0.00 0.00 0.00 40 1023.9
20260509092804 21 63 0.0 1.6 0.00 0.00 0.00 40 1023.8
20260509092604 21 63 0.0 3.2 0.00 0.00 0.00 40 1023.9
20260509092402 21 63 0.0 3.2 0.00 0.00 0.00 40 1023.8
20260509092200 21 63 0.0 3.2 0.00 0.00 0.00 40 1023.8
20260509092001 21 63 0.0 3.2 0.00 0.00 0.00 39 1023.8
20260509091800 21 63 0.0 3.2 0.00 0.00 0.00 39 1023.8
20260509091600 21 63 0.0 3.2 0.00 0.00 0.00 39 1023.7
20260509091359 21 59 0.0 1.6 0.00 0.00 0.00 38 1023.8
20260509091159 21 59 0.0 3.2 0.00 0.00 0.00 38 1023.7
20260509090958 21 59 0.0 3.2 0.00 0.00 0.00 38 1023.7
20260509090759 22 59 0.0 3.2 0.00 0.00 0.00 37 1023.7
20260509090557 22 59 0.0 3.2 0.00 0.00 0.00 37 1023.7
20260509090357 22 59 0.0 3.2 0.00 0.00 0.00 37 1023.6
20260509090156 22 59 0.0 1.6 0.00 0.00 0.00 37 1023.7
20260509085957 22 59 0.0 1.6 0.00 0.00 0.00 37 1023.7
20260509085756 22 59 0.0 1.6 0.00 0.00 0.00 37 1023.6
20260509085556 22 59 0.0 1.6 0.00 0.00 0.00 37 1023.7
20260509085352 22 59 0.0 1.6 0.00 0.00 0.00 37 1023.7
20260509085151 22 59 0.0 1.6 0.00 0.00 0.00 37 1023.7
20260509084951 22 59 0.0 1.6 0.00 0.00 0.00 37 1023.8
20260509084751 22 59 0.0 1.6 0.00 0.00 0.00 36 1023.7
20260509084550 22 59 0.0 1.6 0.00 0.00 0.00 36 1023.8
20260509084350 22 59 0.0 4.8 0.00 0.00 0.00 36 1023.7
20260509084150 22 59 0.0 4.8 0.00 0.00 0.00 35 1023.7
20260509083949 22 58 0.0 6.4 0.00 0.00 0.00 35 1023.6
20260509083749 22 58 0.0 6.4 0.00 0.00 0.00 35 1023.6
20260509083549 22 56 0.0 6.4 0.00 0.00 0.00 34 1023.7
20260509083347 22 56 1.6 6.4 0.00 0.00 0.00 34 1023.6
20260509083146 23 56 3.2 6.4 0.00 0.00 0.00 34 1023.6
20260509082945 23 58 3.2 6.4 0.00 0.00 0.00 33 1023.6
20260509082745 23 96 3.2 6.4 0.00 0.00 0.00 35 1023.7
20260509082545 23 82 3.2 4.8 0.00 0.00 0.00 34 1023.7
20260509082345 23 75 1.6 3.2 0.00 0.00 0.00 35 1023.6
20260509082145 23 75 0.0 3.2 0.00 0.00 0.00 35 1023.6
20260509081945 23 75 1.6 4.8 0.00 0.00 0.00 34 1023.6
20260509081745 23 75 1.6 6.4 0.00 0.00 0.00 34 1023.7
20260509081545 23 76 1.6 6.4 0.00 0.00 0.00 34 1023.6
20260509081346 23 76 1.6 6.4 0.00 0.00 0.00 34 1023.6
20260509081145 23 77 1.6 6.4 0.00 0.00 0.00 34 1023.6
20260509080945 23 61 1.6 6.4 0.00 0.00 0.00 33 1023.6
20260509080745 23 51 3.2 6.4 0.00 0.00 0.00 33 1023.6
20260509080547 23 49 1.6 6.4 0.00 0.00 0.00 33 1023.6
20260509080344 23 61 1.6 6.4 0.00 0.00 0.00 33 1023.6
20260509080145 23 58 3.2 6.4 0.00 0.00 0.00 34 1023.6
20260509075945 24 59 3.2 6.4 0.00 0.00 0.00 34 1023.6
20260509075746 24 70 1.6 4.8 0.00 0.00 0.00 35 1023.5
20260509075544 24 70 1.6 4.8 0.00 0.00 0.00 34 1023.6
20260509075341 24 69 0.0 4.8 0.00 0.00 0.00 34 1023.6
20260509075142 24 69 1.6 4.8 0.00 0.00 0.00 34 1023.6
20260509074941 24 66 1.6 4.8 0.00 0.00 0.00 34 1023.6
20260509074741 24 66 1.6 9.7 0.00 0.00 0.00 33 1023.5
20260509074540 24 66 1.6 9.7 0.00 0.00 0.00 33 1023.6
20260509074340 24 68 1.6 9.7 0.00 0.00 0.00 33 1023.6
20260509074140 25 70 3.2 9.7 0.00 0.00 0.00 33 1023.6
20260509073939 25 70 3.2 9.7 0.00 0.00 0.00 33 1023.6
20260509073738 25 62 3.2 9.7 0.00 0.00 0.00 33 1023.6
20260509073539 25 99 1.6 9.7 0.00 0.00 0.00 33 1023.5
20260509073334 25 179 1.6 9.7 0.00 0.00 0.00 33 1023.5
20260509073135 25 45 1.6 9.7 0.00 0.00 0.00 32 1023.4
20260509072934 25 44 4.8 9.7 0.00 0.00 0.00 33 1023.5
20260509072733 25 13 4.8 8.0 0.00 0.00 0.00 33 1023.4
20260509072533 25 44 3.2 8.0 0.00 0.00 0.00 34 1023.4
20260509072332 25 68 0.0 8.0 0.00 0.00 0.00 34 1023.3
20260509072132 25 68 1.6 8.0 0.00 0.00 0.00 35 1023.4
20260509071932 25 68 3.2 8.0 0.00 0.00 0.00 34 1023.4
20260509071730 25 73 3.2 8.0 0.00 0.00 0.00 35 1023.3
20260509071531 25 52 1.6 8.0 0.00 0.00 0.00 35 1023.3
20260509071331 25 53 0.0 8.0 0.00 0.00 0.00 35 1023.3
20260509071131 25 53 1.6 8.0 0.00 0.00 0.00 35 1023.3
20260509070932 25 53 3.2 9.7 0.00 0.00 0.00 34 1023.3
20260509070731 25 53 4.8 11.3 0.00 0.00 0.00 34 1023.3
20260509070530 25 89 3.2 11.3 0.00 0.00 0.00 33 1023.2
20260509070332 25 61 3.2 11.3 0.00 0.00 0.00 34 1023.2
20260509070131 25 77 3.2 11.3 0.00 0.00 0.00 33 1023.2
20260509065931 25 44 4.8 11.3 0.00 0.00 0.00 33 1023.1
20260509065731 25 76 4.8 8.0 0.00 0.00 0.00 33 1023.1
20260509065531 25 51 6.4 8.0 0.00 0.00 0.00 33 1023.2
20260509065331 25 51 4.8 8.0 0.00 0.00 0.00 33 1023.1
20260509065131 25 0 3.2 6.4 0.00 0.00 0.00 33 1023.1
20260509064931 25 113 3.2 6.4 0.00 0.00 0.00 33 1023.1
20260509064731 25 66 3.2 6.4 0.00 0.00 0.00 34 1023.1
20260509064531 25 63 3.2 8.0 0.00 0.00 0.00 34 1023.1
20260509064331 25 118 3.2 11.3 0.00 0.00 0.00 34 1023.1
20260509064131 25 101 3.2 11.3 0.00 0.00 0.00 34 1023.1
20260509063931 25 44 1.6 11.3 0.00 0.00 0.00 35 1023.1
20260509063731 25 34 4.8 11.3 0.00 0.00 0.00 35 1023.1
20260509063531 25 45 4.8 11.3 0.00 0.00 0.00 35 1023.0
20260509063331 25 58 1.6 11.3 0.00 0.00 0.00 34 1023.0
20260509063131 25 58 4.8 11.3 0.00 0.00 0.00 34 1023.0
20260509062931 25 10 4.8 11.3 0.00 0.00 0.00 34 1023.0
20260509062731 25 130 4.8 9.7 0.00 0.00 0.00 35 1023.0
20260509062528 25 48 3.2 8.0 0.00 0.00 0.00 35 1023.0
20260509062329 25 48 3.2 8.0 0.00 0.00 0.00 35 1023.0
20260509062128 25 46 4.8 14.5 0.00 0.00 0.00 36 1023.0
20260509061925 25 10 3.2 14.5 0.00 0.00 0.00 36 1023.1
20260509061723 25 73 3.2 14.5 0.00 0.00 0.00 35 1023.1
20260509061524 25 39 3.2 14.5 0.00 0.00 0.00 35 1023.1
20260509061323 25 59 6.4 14.5 0.00 0.00 0.00 36 1023.2
20260509061120 25 108 1.6 9.7 0.00 0.00 0.00 37 1023.1
20260509060919 25 56 1.6 9.7 0.00 0.00 0.00 36 1023.2
20260509060719 25 350 3.2 9.7 0.00 0.00 0.00 35 1023.1
20260509060518 25 55 4.8 9.7 0.00 0.00 0.00 35 1023.1
20260509060318 25 58 4.8 9.7 0.00 0.00 0.00 36 1023.1
20260509060117 25 138 3.2 8.0 0.00 0.00 0.00 36 1023.1
20260509055917 25 77 1.6 9.7 0.00 0.00 0.00 37 1023.1
20260509055717 25 77 3.2 9.7 0.00 0.00 0.00 37 1023.1
20260509055516 25 11 3.2 9.7 0.00 0.00 0.00 36 1023.1
20260509055315 25 31 3.2 9.7 0.00 0.00 0.00 37 1023.1
20260509055115 25 101 4.8 9.7 0.00 0.00 0.00 37 1023.2
20260509054915 25 58 3.2 9.7 0.00 0.00 0.00 37 1023.2
20260509054715 25 39 3.2 11.3 0.00 0.00 0.00 37 1023.2
20260509054514 25 83 3.2 11.3 0.00 0.00 0.00 37 1023.3
20260509054314 25 83 3.2 11.3 0.00 0.00 0.00 37 1023.2
20260509054113 25 70 4.8 11.3 0.00 0.00 0.00 37 1023.2
20260509053913 25 68 4.8 11.3 0.00 0.00 0.00 37 1023.3
20260509053713 25 82 1.6 9.7 0.00 0.00 0.00 38 1023.3
20260509053512 25 94 3.2 9.7 0.00 0.00 0.00 38 1023.4
20260509053308 25 53 4.8 9.7 0.00 0.00 0.00 38 1023.4
20260509053108 25 68 4.8 9.7 0.00 0.00 0.00 38 1023.4
20260509052907 25 58 3.2 8.0 0.00 0.00 0.00 38 1023.5
20260509052707 25 56 3.2 8.0 0.00 0.00 0.00 38 1023.5
20260509052507 25 55 3.2 8.0 0.00 0.00 0.00 38 1023.5
20260509052307 25 63 3.2 8.0 0.00 0.00 0.00 39 1023.6
20260509052106 25 63 4.8 11.3 0.00 0.00 0.00 39 1023.7
20260509051906 24 73 4.8 11.3 0.00 0.00 0.00 39 1023.6
20260509051705 24 59 1.6 11.3 0.00 0.00 0.00 39 1023.6
20260509051502 24 56 1.6 11.3 0.00 0.00 0.00 39 1023.7
20260509051302 24 53 4.8 11.3 0.00 0.00 0.00 39 1023.6
20260509051102 24 68 3.2 11.3 0.00 0.00 0.00 39 1023.6
20260509050902 24 115 3.2 11.3 0.00 0.00 0.00 39 1023.6
20260509050702 24 75 3.2 11.3 0.00 0.00 0.00 39 1023.7
20260509050503 24 92 3.2 14.5 0.00 0.00 0.00 39 1023.7
20260509050303 24 94 6.4 14.5 0.00 0.00 0.00 39 1023.8
20260509045904 24 63 4.8 14.5 0.00 0.00 0.00 39 1023.8
20260509045704 24 56 6.4 14.5 0.00 0.00 0.00 39 1023.9
20260509045505 24 89 4.8 14.5 0.00 0.00 0.00 39 1023.9
20260509045306 24 103 4.8 14.5 0.00 0.00 0.00 39 1023.9
20260509045104 24 106 1.6 11.3 0.00 0.00 0.00 40 1024.0
20260509044905 24 87 3.2 11.3 0.00 0.00 0.00 40 1024.0
20260509044704 24 72 3.2 8.0 0.00 0.00 0.00 41 1024.1
20260509044504 23 69 3.2 11.3 0.00 0.00 0.00 41 1024.1
20260509044304 23 70 3.2 11.3 0.00 0.00 0.00 41 1024.1
20260509044104 23 75 4.8 11.3 0.00 0.00 0.00 40 1024.1
20260509043904 23 70 4.8 11.3 0.00 0.00 0.00 40 1024.2
20260509043704 23 93 4.8 11.3 0.00 0.00 0.00 41 1024.2
20260509043504 23 58 4.8 9.7 0.00 0.00 0.00 41 1024.3
20260509043304 23 73 4.8 9.7 0.00 0.00 0.00 41 1024.4
20260509043103 23 8 6.4 14.5 0.00 0.00 0.00 41 1024.4
20260509042904 23 58 4.8 14.5 0.00 0.00 0.00 41 1024.5
20260509042704 23 58 6.4 14.5 0.00 0.00 0.00 41 1024.5
20260509042504 23 53 3.2 14.5 0.00 0.00 0.00 42 1024.5
20260509042306 23 38 6.4 14.5 0.00 0.00 0.00 41 1024.6
20260509042103 23 66 4.8 11.3 0.00 0.00 0.00 41 1024.7
20260509041905 23 46 3.2 11.3 0.00 0.00 0.00 42 1024.6
20260509041704 23 44 3.2 11.3 0.00 0.00 0.00 42 1024.7
20260509041504 23 69 3.2 11.3 0.00 0.00 0.00 42 1024.8
20260509041304 23 77 4.8 11.3 0.00 0.00 0.00 42 1024.8
20260509041104 22 72 4.8 14.5 0.00 0.00 0.00 43 1024.8
20260509040903 22 111 3.2 14.5 0.00 0.00 0.00 42 1024.9
20260509040704 22 70 4.8 14.5 0.00 0.00 0.00 42 1024.9
20260509040504 22 34 4.8 14.5 0.00 0.00 0.00 42 1024.9
20260509040304 22 56 6.4 14.5 0.00 0.00 0.00 42 1025.0
20260509040104 22 51 6.4 11.3 0.00 0.00 0.00 42 1025.1
20260509035904 22 65 6.4 11.3 0.00 0.00 0.00 42 1025.1
20260509035705 22 96 6.4 11.3 0.00 0.00 0.00 42 1025.2
20260509035504 22 13 6.4 11.3 0.00 0.00 0.00 43 1025.2
20260509035306 22 21 6.4 11.3 0.00 0.00 0.00 43 1025.3
20260509035104 22 65 4.8 11.3 0.00 0.00 0.00 43 1025.4
20260509034903 22 49 3.2 14.5 0.00 0.00 0.00 43 1025.4
20260509034704 22 49 4.8 17.7 0.00 0.00 0.00 43 1025.5
20260509034505 22 51 4.8 17.7 0.00 0.00 0.00 43 1025.5
20260509034304 22 27 6.4 17.7 0.00 0.00 0.00 43 1025.5
20260509034104 22 6 6.4 17.7 0.00 0.00 0.00 42 1025.5
20260509033901 22 82 8.0 17.7 0.00 0.00 0.00 42 1025.6
20260509033700 22 28 6.4 14.5 0.00 0.00 0.00 42 1025.6
20260509033501 22 93 6.4 14.5 0.00 0.00 0.00 43 1025.6
20260509033300 22 68 4.8 14.5 0.00 0.00 0.00 43 1025.7
20260509033056 22 69 3.2 14.5 0.00 0.00 0.00 44 1025.8
20260509032857 22 4 6.4 14.5 0.00 0.00 0.00 43 1025.7
20260509032656 22 48 4.8 11.3 0.00 0.00 0.00 44 1025.8
20260509032452 22 72 4.8 11.3 0.00 0.00 0.00 44 1025.8
20260509032251 22 37 6.4 11.3 0.00 0.00 0.00 44 1025.9
20260509032051 22 45 4.8 11.3 0.00 0.00 0.00 45 1026.0
20260509031851 22 73 6.4 16.1 0.00 0.00 0.00 43 1025.9
20260509031651 22 75 6.4 16.1 0.00 0.00 0.00 43 1026.0
20260509031450 22 39 6.4 17.7 0.00 0.00 0.00 44 1026.1
20260509031249 22 48 4.8 17.7 0.00 0.00 0.00 44 1026.1
20260509031049 22 1 6.4 17.7 0.00 0.00 0.00 44 1026.2
20260509030850 22 42 6.4 17.7 0.00 0.00 0.00 44 1026.1
20260509030650 22 35 8.0 17.7 0.00 0.00 0.00 44 1026.2
20260509030447 22 32 6.4 14.5 0.00 0.00 0.00 45 1026.2
20260509030247 22 32 6.4 14.5 0.00 0.00 0.00 45 1026.3
20260509030046 21 27 6.4 14.5 0.00 0.00 0.00 46 1026.5
20260509025839 21 27 6.4 14.5 0.00 0.00 0.00 46 1026.5
20260509025637 21 65 6.4 16.1 0.00 0.00 0.00 46 1026.5
20260509025436 21 7 6.4 16.1 0.00 0.00 0.00 46 1026.5
20260509025236 21 68 4.8 16.1 0.00 0.00 0.00 45 1026.6
20260509025036 21 61 6.4 16.1 0.00 0.00 0.00 45 1026.6
20260509024836 21 45 6.4 16.1 0.00 0.00 0.00 46 1026.6
20260509024636 21 59 6.4 14.5 0.00 0.00 0.00 45 1026.6
20260509024436 21 72 4.8 14.5 0.00 0.00 0.00 46 1026.6
20260509024236 21 28 6.4 14.5 0.00 0.00 0.00 46 1026.7